Date String (YYYY-MM-DD hh:mm:ss) UTC,Instrument flags,Ambient pressure (hPa),Sample flow (lpm),Bypass flow (lpm),Sample temperature (°C),Ambient temperature (°C),ASC tube jacket temperature (°C),LED temperature (°C),Box temperature (°C),Sample RH (%),Span deviation,Mass concentration (μg/m³),Mass concentration (μg/m³),Mass concentration (μg/m³)
DateTimeUTC,F1_M11,P_M11,Q1_M11,Q2_M11,T1_M11,T2_M11,T3_M11,T4_M11,T5_M11,U1_M11,ZSPAN_M11,X2_M11,X0_M11,X1_M11
2021-10-27 03:00:00,,0818.0,5.00,0.00,27.7,26.9,00.0,36.9,29.5,15.0,0000.0,0000.55,0003.87,0000.13
2021-10-27 03:01:00,,0818.0,5.00,0.00,27.7,26.9,00.0,36.8,29.4,15.1,0000.0,0000.54,0004.41,0000.13
2021-10-27 03:02:00,,0818.1,5.01,0.00,27.7,26.9,00.0,36.8,29.4,15.2,0000.0,0000.54,0005.83,0000.14
2021-10-27 03:03:00,,0818.2,5.00,0.00,27.6,26.9,00.0,36.8,29.4,15.3,0000.0,0000.55,0005.94,0000.14
2021-10-27 03:04:00,,0818.2,5.00,0.00,27.6,26.9,00.0,36.8,29.4,15.3,0000.0,0000.57,0006.72,0000.15
2021-10-27 03:05:00,,0818.3,5.01,0.00,27.7,26.9,00.0,36.8,29.5,15.3,0000.0,0000.66,0006.01,0000.16
2021-10-27 03:06:00,,0818.3,5.00,0.00,27.6,26.9,00.0,36.8,29.5,15.3,0000.0,0000.74,0007.01,0000.16
2021-10-27 03:07:00,,0818.3,5.00,0.00,27.7,26.9,00.0,36.8,29.5,15.2,0000.0,0000.78,0007.37,0000.17
2021-10-27 03:08:00,,0818.3,5.01,0.00,27.7,27.0,00.0,36.8,29.5,15.1,0000.0,0000.76,0007.61,0000.17
2021-10-27 03:09:00,,0818.3,5.00,0.00,27.7,27.0,00.0,36.8,29.5,15.1,0000.0,0000.75,0007.73,0000.18
2021-10-27 03:10:00,,0818.3,5.01,0.00,27.7,27.0,00.0,36.8,29.5,15.1,0000.0,0000.73,0007.59,0000.18
2021-10-27 03:11:00,,0818.4,4.99,0.00,27.7,27.0,00.0,36.8,29.5,15.1,0000.0,0000.78,0007.60,0000.18
2021-10-27 03:12:00,,0818.4,5.01,0.00,27.7,27.0,00.0,36.8,29.5,15.2,0000.0,0000.78,0007.13,0000.18
2021-10-27 03:13:00,,0818.4,5.00,0.00,27.7,26.9,00.0,36.8,29.4,15.2,0000.0,0000.80,0005.81,0000.18
2021-10-27 03:14:00,,0818.5,5.00,0.00,27.7,26.9,00.0,36.8,29.4,15.3,0000.0,0000.80,0005.75,0000.18
2021-10-27 03:15:00,,0818.5,5.01,0.00,27.6,26.9,00.0,36.8,29.4,15.4,0000.0,0000.88,0004.47,0000.18
2021-10-27 03:16:00,,0818.5,4.99,0.00,27.6,26.8,00.0,36.7,29.4,15.4,0000.0,0000.86,0004.37,0000.17
2021-10-27 03:17:00,,0818.4,5.01,0.00,27.5,26.7,00.0,36.7,29.3,15.4,0000.0,0000.85,0003.65,0000.17
2021-10-27 03:18:00,,0818.5,4.99,0.00,27.5,26.7,00.0,36.7,29.3,15.4,0000.0,0000.87,0003.49,0000.17
2021-10-27 03:19:00,,0818.5,5.01,0.00,27.5,26.7,00.0,36.7,29.2,15.5,0000.0,0000.89,0003.35,0000.17
2021-10-27 03:20:00,,0818.5,5.00,0.00,27.5,26.6,00.0,36.7,29.2,15.5,0000.0,0000.95,0003.32,0000.17
2021-10-27 03:21:00,,0818.5,5.00,0.00,27.4,26.6,00.0,36.7,29.2,15.6,0000.0,0001.00,0004.13,0000.18
2021-10-27 03:22:00,,0818.5,5.00,0.00,27.4,26.6,00.0,36.7,29.2,15.6,0000.0,0001.05,0004.50,0000.18
2021-10-27 03:23:00,,0818.5,5.01,0.00,27.4,26.6,00.0,36.6,29.2,15.6,0000.0,0001.08,0005.06,0000.19
2021-10-27 03:24:00,,0818.5,5.00,0.00,27.4,26.6,00.0,36.6,29.2,15.6,0000.0,0001.07,0006.51,0000.20
2021-10-27 03:25:00,,0818.5,5.00,0.00,27.4,26.6,00.0,36.6,29.2,15.6,0000.0,0001.09,0007.23,0000.20
2021-10-27 03:26:00,,0818.4,4.99,0.00,27.4,26.6,00.0,36.6,29.2,15.6,0000.0,0001.07,0007.84,0000.21
2021-10-27 03:27:00,,0818.4,5.02,0.00,27.4,26.6,00.0,36.6,29.2,15.6,0000.0,0001.07,0008.03,0000.21
2021-10-27 03:28:00,,0818.4,5.00,0.00,27.4,26.6,00.0,36.6,29.1,15.7,0000.0,0001.03,0008.40,0000.22
2021-10-27 03:29:00,,0818.5,4.99,0.00,27.4,26.6,00.0,36.5,29.2,15.7,0000.0,0001.02,0008.32,0000.22
2021-10-27 03:30:00,,0818.4,5.00,0.00,27.3,26.6,00.0,36.5,29.1,15.7,0000.0,0001.05,0008.34,0000.23
2021-10-27 03:31:00,,0818.5,5.00,0.00,27.3,26.6,00.0,36.5,29.1,15.7,0000.0,0001.05,0008.32,0000.23
2021-10-27 03:32:00,,0818.5,5.01,0.00,27.3,26.6,00.0,36.5,29.1,15.7,0000.0,0001.06,0008.10,0000.24
2021-10-27 03:33:00,,0818.5,4.99,0.00,27.3,26.6,00.0,36.5,29.1,15.7,0000.0,0001.03,0008.29,0000.24
2021-10-27 03:34:00,,0818.6,5.01,0.00,27.3,26.5,00.0,36.5,29.1,15.7,0000.0,0001.00,0008.04,0000.23
2021-10-27 03:35:00,,0818.6,5.01,0.00,27.3,26.5,00.0,36.5,29.1,15.6,0000.0,0001.00,0007.17,0000.23
2021-10-27 03:36:00,,0818.8,5.00,0.00,27.3,26.5,00.0,36.5,29.1,15.7,0000.0,0000.98,0007.17,0000.23
2021-10-27 03:37:00,,0818.8,4.99,0.00,27.3,26.5,00.0,36.4,29.1,15.8,0000.0,0000.95,0006.54,0000.23
2021-10-27 03:38:00,,0818.7,5.00,0.00,27.3,26.5,00.0,36.4,29.0,15.9,0000.0,0000.90,0006.07,0000.23
2021-10-27 03:39:00,,0818.7,4.99,0.00,27.2,26.4,00.0,36.4,29.0,16.2,0000.0,0000.93,0005.39,0000.24
2021-10-27 03:40:00,,0818.7,5.00,0.00,27.2,26.4,00.0,36.4,28.9,16.3,0000.0,0000.98,0006.81,0000.25
2021-10-27 03:41:00,,0818.7,5.01,0.00,27.1,26.3,00.0,36.4,28.9,16.4,0000.0,0001.02,0008.20,0000.28
2021-10-27 03:42:00,,0818.7,5.00,0.00,27.1,26.3,00.0,36.4,28.8,16.5,0000.0,0001.03,0008.37,0000.33
2021-10-27 03:43:00,,0818.7,5.00,0.00,27.1,26.2,00.0,36.3,28.8,16.7,0000.0,0001.07,0008.55,0000.37
2021-10-27 03:44:00,,0818.7,5.00,0.00,27.0,26.2,00.0,36.3,28.7,16.7,0000.0,0001.13,0008.44,0000.41
2021-10-27 03:45:00,,0818.7,5.01,0.00,27.0,26.2,00.0,36.3,28.7,16.7,0000.0,0001.19,0008.49,0000.44
2021-10-27 03:46:00,,0818.8,5.00,0.00,27.0,26.1,00.0,36.3,28.7,16.7,0000.0,0001.26,0008.61,0000.46
2021-10-27 03:47:00,,0818.7,4.99,0.00,27.0,26.1,00.0,36.3,28.7,16.8,0000.0,0001.38,0008.36,0000.48
2021-10-27 03:48:00,,0818.7,4.99,0.00,26.9,26.1,00.0,36.2,28.6,16.9,0000.0,0001.42,0008.44,0000.49
2021-10-27 03:49:00,,0818.7,5.02,0.00,26.9,26.0,00.0,36.2,28.6,16.9,0000.0,0001.50,0008.82,0000.51
2021-10-27 03:50:00,,0818.7,4.99,0.00,26.8,26.0,00.0,36.2,28.5,17.0,0000.0,0001.46,0008.70,0000.52
2021-10-27 03:51:00,,0818.8,4.99,0.00,26.8,25.9,00.0,36.1,28.5,17.0,0000.0,0001.42,0008.11,0000.52
2021-10-27 03:52:00,,0818.8,5.01,0.00,26.8,25.9,00.0,36.1,28.4,17.0,0000.0,0001.40,0006.79,0000.51
2021-10-27 03:53:00,,0818.9,5.00,0.00,26.7,25.9,00.0,36.1,28.4,17.1,0000.0,0001.44,0006.68,0000.48
2021-10-27 03:54:00,,0818.9,5.00,0.00,26.7,25.8,00.0,36.1,28.4,17.1,0000.0,0001.38,0006.11,0000.44
2021-10-27 03:55:00,,0818.9,5.01,0.00,26.7,25.8,00.0,36.0,28.4,17.1,0000.0,0001.34,0005.62,0000.42
2021-10-27 03:56:00,,0818.9,5.00,0.00,26.7,25.8,00.0,36.0,28.4,17.1,0000.0,0001.36,0005.78,0000.39
2021-10-27 03:57:00,,0818.9,5.00,0.00,26.7,25.8,00.0,36.0,28.4,17.1,0000.0,0001.33,0006.90,0000.38
2021-10-27 03:58:00,,0818.9,4.99,0.00,26.6,25.8,00.0,36.0,28.3,17.2,0000.0,0001.25,0007.17,0000.37
2021-10-27 03:59:00,,0818.9,5.00,0.00,26.6,25.7,00.0,35.9,28.2,17.3,0000.0,0001.22,0007.61,0000.36
